Location: Sumpter
(44.7457°N, 118.2022°W)
Time: 20:14:59
(UTC-07:00)

ISS - Pass Details

Date: 23 February 2019
Orbit: 406 x 411 km, 51.6° (Epoch: 21 March)

Event Time Altitude Azimuth Distance (km) Brightness Sun altitude
Exits shadow 05:10:10 - 190° (S) 2,174 -0.3 -16.8°
Reaches altitude 10° 05:12:38 10° 165° (SSE) 1,453 -0.9 -16.4°
Maximum altitude 05:14:20 14° 133° (SE) 1,257 -0.7 -16.1°
Drops below altitude 10° 05:16:04 10° 101° (E) 1,460 0.3 -15.8°
Sets 05:18:55 0° 74° (ENE) 2,326 1.6 -15.3°
